WESTFORD NEEDLES, 629

Orbit data source: Space-Track

WESTFORD NEEDLES, 629 is space debris in LEO originally from a launch on Thu, 09 May 1963 UTC via an ATLAS AGENA B launch vehicle from the Air Force Western Test Range (AFWTR). Debris objects in space refer to the collection of defunct objects orbiting the Earth. Examples of debris include non-operational satellites, rocket bodies, and fragments generated from explosions, collisions, or faulty payload assembly.

Loading next visibility...
WESTFORD NEEDLES details
Identifier
629, 1963-014G
Orbit
LEO
Last TLE update1 day ago
Origin
Flag of USUSAF SSD (US)
ManufacturerMIT-LL
MissionSpacecraft
Bus & MotorUnknown
Mass8 kg wet, 8 kg dry
Launch date (UTC)
1963-05-09 (62 years ago)
Launch vehicle
ATLAS AGENA B
Launch site
Air Force Western Test Range (AFWTR)
Object type
Payload
Rocket body
Debris
Shape & HBRUnknown
Radar Cross SectionLarge (>1 m²)

Expand to show TLE details & history

TLE from 1 day ago
0 WESTFORD NEEDLES
1 00629U 63014G   25035.52069079 -.00000011  00000-0 -67016-2 0  9990
2 00629  87.3160 238.6275 0085096 152.9347 207.5980  8.65569092951136
Epoch: 2025-02-04T12:29Z
Definitive object data (Epoch: 2025-02-04T12:29:47.684Z)
Latitude0.00002°
Longitude-83.74598°
Altitude3,719.768 km
Speed6.26 km/s
True Right ascension15h 54m 30s
True Declination0° 00' 00"
Sunlit
Object was in daylight at TLE epoch
Visualization TLE readout
Latitude87.32658°
Longitude6.2346°
Altitude3,614.922 km
Speed6.335 km/s
Apparent Right ascension03h 50m 52s
Apparent Declination50° 20' 11"
Sunlit
Object is in daylight
Visualization observer readout
Local Sidereal Time16:12:45
Azimuth3.489° NNE
Elevation0.38°
Doppler factor1
Orbital elements
Apogee altitude3,724.925 km
Perigee altitude3,554.43 km
Semi-major axis10,017.814 km
Eccentricity0.0085096
Inclination87.316°
RAAN238.6275°
Arg. of periapsis152.9347°
True anomaly207.15048°
Mean anomaly207.598°
Eccentric anomaly207.37382°
Mean motion2.16463 °/min
BSTAR-0.0067016
Orbital period166.31 mins
Loading maneuver chart data...

WESTFORD NEEDLES Visibility forecast

Observer location: undefined°, undefined

Span
Click to sort rows by Start time (UTC) header in descending order
Start Az.
Max El. time (UTC)
Max El. Az.
Max El.
End time (UTC)
End Az.
29 mins2025-02-05 16:21:19.161Z243.76° WSW2025-02-05 16:35:19.161Z294.479° NW24.382°2025-02-05 16:50:19.161Z349.997° N
25 mins2025-02-05 22:35:19.161Z14.717° NNE2025-02-05 22:47:19.161Z59.071° ENE20.952°2025-02-05 23:00:19.161Z106.816° ESE
35 mins2025-02-06 01:20:19.161Z358.092° N2025-02-06 01:37:19.161Z18.768° NNE44.956°2025-02-06 01:55:19.161Z182.828° SSW
23 mins2025-02-06 04:09:19.161Z340.637° N2025-02-06 04:20:19.161Z300.244° NW21.941°2025-02-06 04:32:19.161Z256.298° W
31 mins2025-02-06 11:44:19.161Z127.152° SE2025-02-06 11:59:19.161Z70.539° E31.455°2025-02-06 12:15:19.161Z10.625° NNE
|